Weather History for KENL - October, 2013

Change the Weather History Date:

Tuesday, October 29, 2013

  Actual Average (KSLO) Record (KSLO)
Temperature  
Mean Temperature 54 °F -  
Max Temperature 60 °F 63 °F 83 °F (1971)
Min Temperature 49 °F 41 °F 23 °F (1976)
Degree Days  
Heating Degree Days 11    
Growing Degree Days 4 (Base 50)    
Moisture  
Dew Point 48 °F    
Average Humidity 78    
Maximum Humidity 94    
Minimum Humidity 53    
Precipitation  
Precipitation 0.24 in - - ()
Sea Level Pressure  
Sea Level Pressure 30.19 in    
Wind  
Wind Speed 3 mph (ESE)    
Max Wind Speed 8 mph    
Max Gust Speed -    
Visibility 6 miles    
Events Rain    
Averages and records for this station are not official NWS values.
T = Trace of Precipitation, MM = Missing Value Source: NWS Daily Summary

Daily Weather History Graph

Daily Weather History Graph

Search for Another Location

Airport or City:

Trip Planner

Search our weather history database for the weather conditions in past years. The results will help you decide how hot, cold, wet, or windy it might be!

Date:

Astronomy

Oct. 29, 2013 Rise Set
Actual Time 7:19 AM CDT 5:59 PM CDT
Civil Twilight 6:52 AM CDT 6:26 PM CDT
Nautical Twilight 6:21 AM CDT 6:58 PM CDT
Astronomical Twilight 5:50 AM CDT 7:28 PM CDT
Moon 2:13 AM CDT (10/29) 3:10 PM CDT (10/29)
Length of Visible Light 11h 34m
Length of Day
10h 39m
Waning Crescent, 25% of the Moon is Illuminated
Oct 29
Waning Crescent
Nov 3
New
Nov 9
First Quarter
Nov 17
Full
Nov 25
Last Quarter

Hourly Weather History & Observations

Time (CDT) Temp. Dew Point Humidity Pressure Visibility Wind Dir Wind Speed Gust Speed Precip Events Conditions
12:15 AM 50.2 °F 37.8 °F 62% 30.26 in 10.0 mi East 3.5 mph - N/A   Clear
12:35 AM 49.3 °F 37.6 °F 64% 30.26 in 10.0 mi East 3.5 mph - N/A   Clear
12:55 AM 49.1 °F 37.6 °F 64% 30.25 in 10.0 mi East 4.6 mph - N/A   Clear
1:15 AM 50.5 °F 37.4 °F 61% 30.25 in 10.0 mi Calm Calm - N/A   Clear
1:35 AM 50.9 °F 36.7 °F 58% 30.25 in 10.0 mi Calm Calm - N/A   Clear
1:55 AM 51.8 °F 36.1 °F 55% 30.26 in 10.0 mi Calm Calm - N/A   Clear
2:15 AM 52.0 °F 36.0 °F 54% 30.26 in 10.0 mi Calm Calm - N/A   Clear
2:35 AM 52.2 °F 35.6 °F 53% 30.26 in 10.0 mi East 3.5 mph - N/A   Clear
2:55 AM 51.1 °F 35.6 °F 55% 30.25 in 10.0 mi Calm Calm - N/A   Clear
3:15 AM 50.9 °F 35.1 °F 55% 30.25 in 10.0 mi East 3.5 mph - N/A   Clear
3:35 AM 50.0 °F 35.4 °F 57% 30.24 in 10.0 mi Calm Calm - N/A   Clear
3:55 AM 50.7 °F 34.9 °F 55% 30.25 in 10.0 mi East 4.6 mph - N/A   Clear
4:15 AM 49.1 °F 35.4 °F 59% 30.24 in 10.0 mi Calm Calm - N/A   Clear
4:55 AM 49.8 °F 34.7 °F 56% 30.25 in 10.0 mi Calm Calm - N/A   Clear
5:35 AM 49.5 °F 35.6 °F 59% 30.26 in 10.0 mi East 3.5 mph - N/A   Clear
5:55 AM 50.4 °F 35.6 °F 57% 30.25 in 10.0 mi Calm Calm - N/A   Clear
6:35 AM 50.0 °F 36.5 °F 60% 30.25 in 10.0 mi East 4.6 mph - N/A   Clear
6:55 AM 50.2 °F 36.9 °F 60% 30.24 in 10.0 mi Calm Calm - N/A   Clear
7:35 AM 50.0 °F 37.0 °F 61% 30.24 in 10.0 mi Calm Calm - N/A   Clear
7:55 AM 50.7 °F 37.2 °F 60% 30.25 in 10.0 mi Calm Calm - N/A   Clear
8:35 AM 51.3 °F 37.9 °F 60% 30.25 in 10.0 mi ESE 4.6 mph - N/A   Clear
9:15 AM 52.2 °F 40.6 °F 65% 30.27 in 10.0 mi Calm Calm - N/A   Clear
9:35 AM 52.5 °F 41.4 °F 66% 30.27 in 10.0 mi ESE 4.6 mph - N/A   Clear
9:55 AM 53.4 °F 42.8 °F 67% 30.28 in 10.0 mi ESE 3.5 mph - N/A   Clear
10:15 AM 54.1 °F 44.2 °F 69% 30.27 in 10.0 mi ESE 4.6 mph - N/A   Mostly Cloudy
10:35 AM 54.5 °F 45.0 °F 70% 30.27 in 10.0 mi ESE 4.6 mph - N/A   Scattered Clouds
10:55 AM 54.5 °F 45.5 °F 72% 30.27 in 10.0 mi ESE 4.6 mph - N/A   Scattered Clouds
11:15 AM 54.7 °F 46.0 °F 73% 30.28 in 10.0 mi Calm Calm - N/A   Scattered Clouds
11:35 AM 55.4 °F 47.5 °F 75% 30.27 in 10.0 mi SE 4.6 mph - N/A   Mostly Cloudy
11:55 AM 55.4 °F 48.9 °F 79% 30.27 in 10.0 mi South 3.5 mph - N/A Rain Light Rain
12:15 PM 54.7 °F 50.2 °F 85% 30.26 in 5.0 mi South 4.6 mph - 0.01 in Rain Light Rain
12:35 PM 54.1 °F 50.7 °F 88% 30.25 in 4.0 mi SE 4.6 mph - 0.04 in Rain Rain
12:53 PM 55.4 °F 51.8 °F 88% 30.23 in 4.0 mi ESE 4.6 mph - 0.07 in Rain Rain
12:55 PM 54.5 °F 51.8 °F 91% 30.23 in 4.0 mi ESE 4.6 mph - 0.07 in Rain Rain
1:15 PM 55.4 °F 52.9 °F 91% 30.20 in 4.0 mi ESE 4.6 mph - 0.01 in Rain Light Rain
1:35 PM 56.3 °F 53.8 °F 91% 30.18 in 4.0 mi ESE 4.6 mph - 0.02 in Rain Light Rain
1:55 PM 56.8 °F 54.5 °F 92% 30.18 in 4.0 mi SE 4.6 mph - 0.02 in   Scattered Clouds
2:15 PM 57.4 °F 54.9 °F 91% 30.16 in 3.0 mi SSE 6.9 mph - 0.01 in Rain Light Rain
2:35 PM 57.9 °F 55.4 °F 91% 30.16 in 3.0 mi SSE 5.8 mph - 0.02 in Rain Light Rain
2:55 PM 58.1 °F 55.6 °F 91% 30.14 in 4.0 mi SE 8.1 mph - 0.02 in   Mostly Cloudy
3:15 PM 58.3 °F 55.8 °F 91% 30.14 in 4.0 mi SE 8.1 mph - N/A   Mostly Cloudy
3:35 PM 58.6 °F 55.9 °F 91% 30.13 in 4.0 mi SE 8.1 mph - N/A Rain Light Rain
3:55 PM 58.6 °F 56.1 °F 91% 30.14 in 3.0 mi SE 6.9 mph - 0.01 in Rain Light Rain
4:15 PM 58.6 °F 56.3 °F 92% 30.14 in 3.0 mi SE 5.8 mph - 0.01 in Rain Light Rain
4:35 PM 58.6 °F 56.3 °F 92% 30.13 in 2.5 mi SE 6.9 mph - 0.03 in Rain Light Rain
4:55 PM 58.3 °F 55.9 °F 92% 30.12 in 4.0 mi SE 4.6 mph - 0.04 in Rain Light Rain
5:15 PM 58.3 °F 55.8 °F 91% 30.12 in 4.0 mi SE 5.8 mph - N/A   Overcast
5:35 PM 58.3 °F 55.9 °F 92% 30.11 in 4.0 mi East 4.6 mph - N/A   Overcast
5:55 PM 58.1 °F 55.8 °F 92% 30.12 in 5.0 mi Calm Calm - N/A   Overcast
6:15 PM 58.1 °F 55.8 °F 92% 30.12 in 4.0 mi Calm Calm - N/A   Overcast
6:35 PM 58.1 °F 55.8 °F 92% 30.11 in 5.0 mi East 4.6 mph - N/A Rain Light Rain
6:55 PM 58.3 °F 55.8 °F 91% 30.11 in 5.0 mi East 6.9 mph - N/A   Overcast
7:15 PM 58.3 °F 55.8 °F 91% 30.12 in 4.0 mi Calm Calm - N/A Rain Rain
7:35 PM 58.3 °F 55.8 °F 91% 30.12 in 4.0 mi East 5.8 mph - 0.01 in   Light Drizzle
7:55 PM 58.3 °F 55.9 °F 92% 30.11 in 3.0 mi East 5.8 mph - 0.01 in   Light Drizzle
8:15 PM 58.6 °F 56.3 °F 92% 30.10 in 4.0 mi ESE 4.6 mph - N/A   Overcast
8:35 PM 58.6 °F 56.3 °F 92% 30.11 in 4.0 mi East 4.6 mph - N/A   Overcast
8:55 PM 59.0 °F 56.5 °F 91% 30.10 in 4.0 mi ESE 8.1 mph - N/A   Overcast
9:15 PM 59.0 °F 56.7 °F 92% 30.11 in 3.0 mi SE 6.9 mph - 0.01 in Rain Rain
9:35 PM 59.0 °F 57.2 °F 94% 30.11 in 3.0 mi ESE 4.6 mph - 0.02 in Rain Light Rain
9:55 PM 59.2 °F 57.2 °F 93% 30.11 in 3.0 mi ESE 3.5 mph - 0.05 in Rain Rain
10:15 PM 59.2 °F 57.2 °F 93% 30.11 in 3.0 mi ESE 3.5 mph - 0.01 in Rain Light Rain
10:35 PM 59.4 °F 57.4 °F 93% 30.10 in 4.0 mi Calm Calm - 0.01 in   Light Drizzle
10:55 PM 59.2 °F 57.2 °F 93% 30.10 in 3.0 mi Calm Calm - 0.01 in   Overcast
11:15 PM 59.2 °F 57.2 °F 93% 30.10 in 3.0 mi East 3.5 mph - N/A   Overcast
11:35 PM 59.2 °F 57.2 °F 93% 30.09 in 3.0 mi SE 4.6 mph - 0.01 in   Overcast
11:55 PM 59.9 °F 58.1 °F 94% 30.08 in 3.0 mi Calm Calm - 0.01 in   Overcast